Location: Angwan Shehu
(11.2514°N, 7.4613°E)
Time: 01:58:49
(UTC+00:00)

Tiros 1 - Pass Details

Date: 29 April 2021
Orbit: 630 x 664 km, 48.4° (Epoch: 06 May)

Event Time Altitude Azimuth Distance (km) Brightness Sun altitude
Rises 13:45:47 0° 310° (NW) 2,903 10.9 56.2°
Reaches altitude 10° 13:48:09 10° 304° (NW) 1,996 10.4 55.6°
Maximum altitude 13:52:32 45° 232° (SW) 856 9.0 54.5°
Drops below altitude 10° 13:56:56 10° 159° (SSE) 2,004 9.6 53.5°
Sets 13:59:20 0° 153° (SSE) 2,916 10.3 52.9°
